Regional Weather Roundup
Issued by NWS

Home | Current Version | Previous Version | Graphics & Text | Print | Product List | Glossary On
Versions: 1 2 3 4 5 6 7 8 9 10 11 12 13 14 15 16 17 18 19 20 21 22 23 24 25 26 27 28 29 30 31 32 33 34 35 36 37 38 39 40 41 42 43 44 45 46 47 48 49 50
000
ASUS45 KCYS 071410
RWRWY

WYOMING REGIONAL WEATHER ROUNDUP
NATIONAL WEATHER SERVICE CHEYENNE WY
700 AM MST SUN FEB 07 2016

NOTE:  "FAIR" INDICATES FEW OR NO CLOUDS BELOW 12,000 FEET
WITH NO SIGNIFICANT WEATHER AND/OR OBSTRUCTIONS TO VISIBILITY.

WYZ001-071500-
YELLOWSTONE NATIONAL PARK

CITY           SKY/WX    TMP DP  RH WIND       PRES   REMARKS
LK YELLOWSTONE   N/A      2  -2  83 W5        30.38R WCI  -8
W YELLOWSTONE  NOT AVBL

$$
WYZ002>013-054>058-071-098>099-071500-
NORTHERN WYOMING

CITY           SKY/WX    TMP DP  RH WIND       PRES   REMARKS
JACKSON        MOCLDY    28  21  74 SW10G16   30.40R WCI  19
CODY           FAIR      21  12  68 CALM      30.32R
GREYBULL       MOCLDY    35  13  40 N26G37    30.31R WCI  22
WORLAND        FAIR      23  15  71 SW8       30.32R WCI  14
SHERIDAN       CLOUDY    34  16  47 NW17      30.28R WCI  23
BUFFALO        MIX PCPN  31  14  49 N30G43    30.24R WCI  16
GILLETTE       CLOUDY    30  14  51 NW28G38   30.23R WCI  15
HULETT         FAIR      30  12  47 NW13G23   30.19R WCI  20
NEWCASTLE      FAIR      30   9  40 NW16G24   30.18R WCI  19

$$
WYZ014>020-022>026-101>103-071500-
CENTRAL WYOMING

CITY           SKY/WX    TMP DP  RH WIND       PRES   REMARKS
BIG PINEY      FAIR      26  17  68 N16       30.36R WCI  14
PINEDALE       FAIR      23  18  80 NW16      30.35R WCI  10
DUBOIS         FAIR      27  12  54 NW25G31   30.26R WCI  11
LANDER         FAIR      20  10  65 E3        30.28R
RIVERTON       FAIR      24  11  57 E8        30.30R WCI  15
CASPER         CLOUDY    13   8  81 NE5       30.28R WCI   5
DOUGLAS        FLURRIES  27  21  78 NW20G26     N/A  WCI  13

$$
WYZ021-027>030-104>119-071500-
SOUTHERN WYOMING

CITY           SKY/WX    TMP DP  RH WIND       PRES   REMARKS
EVANSTON       FAIR      23  13  65 SW21      30.44R WCI   8
FORT BRIDGER   MOSUNNY   25  18  74 W16       30.46R WCI  12
ROCK SPRINGS   FAIR      24  16  71 W18       30.39R WCI  10
DIXON          FAIR      10   5  80 CALM      30.42R
RAWLINS        FAIR      22  14  71 W23       30.30R WCI   6
SARATOGA       FAIR      23  19  86 W26G33    30.28S WCI   6
LARAMIE        FAIR      24  15  68 W22       30.18R WCI   9
CHEYENNE       FAIR      25  17  72 N13       30.19R WCI  14
TORRINGTON     CLOUDY    30  23  75 NW14G25   30.24R WCI  19
PINE BLUFFS    FAIR      25  19  80 NW13      30.23R WCI  13

$$



USA.gov is the U.S. government's official web portal to all federal, state and local government web resources and services.